[[{"header":{"parameterUnit":"m.s-1","parameterCategory":1,"la1":30.2991,"la2":30.254,"lo1":-89.0895,"lo2":-89.0444,"dy":0.0017,"dx":0.0017,"nx":28,"ny":28,"refTime":"2025-04-03T09:00:00:Z","depth":0,"parameterNumber":2,"parameterNumberName":"U-component_of_WINDS"},"data":[0,0,0,0,0,0,0,0,0,0,0,0,0,0,0,0,0,0,0,0,0,0,0,0,0,0,0,0,0,0,0,0,0,0,0,0,0,0,0,0,0,0,0,0,0,0,0,0,0,0,0,0,0,0,0,0,0,0,-5.1225,-5.1226,0,-5.1361,-5.1362,-5.1364,-5.1373,-5.1372,-5.137,-5.1369,-5.1507,-5.1512,-5.1517,0,0,0,0,0,0,0,0,0,0,0,0,0,-5.0972,-5.0977,-5.1225,-5.1226,-5.1228,-5.136,-5.1362,-5.1364,-5.1374,-5.1372,-5.137,-5.1368,-5.1505,-5.1511,-5.1517,0,0,0,0,0,0,0,0,0,0,0,0,0,-5.1092,-5.0978,-5.1224,-5.1249,-5.1252,-5.136,-5.1362,-5.1365,-5.1374,-5.1372,-5.1369,-5.1367,-5.1503,-5.151,-5.1518,-5.161,0,0,-5.1541,-5.1544,0,0,0,0,0,0,0,0,-5.1086,-5.1102,-5.1243,-5.1247,-5.1251,-5.1348,-5.1324,-5.1447,-5.1375,-5.1328,-5.1369,-5.1366,-5.1455,-5.1467,-5.1497,-5.1616,-5.1622,-5.1542,-5.1546,-5.155,-5.1552,0,0,0,0,0,0,0,-5.1077,-5.1096,-5.1278,-5.1245,-5.125,-5.1253,-5.1267,-5.1347,-5.1403,-5.1332,-5.1333,-5.1349,-5.1457,-5.149,-5.1501,-5.1624,-5.1542,-5.1548,-5.1553,-5.1556,-5.1826,-5.1828,0,0,0,0,0,0,-5.1064,-5.1089,-5.1274,-5.1282,-5.1161,-5.1259,-5.1275,-5.1319,-5.1402,-5.1412,-5.135,-5.1349,-5.1478,-5.1492,-5.1505,-5.1618,-5.155,-5.1557,-5.1561,-5.1823,-5.1826,-5.1829,0,0,0,0,0,0,-5.1059,-5.1081,-5.1269,-5.1186,-5.121,-5.1266,-5.1315,-5.1323,-5.1356,-5.1416,-5.1426,-5.1374,-5.1477,-5.1495,-5.1584,-5.1623,-5.156,-5.1567,-5.182,-5.1824,-5.1828,-5.1844,0,0,0,0,0,0,-5.1052,-5.1079,-5.1114,-5.1187,-5.1214,-5.1345,-5.1317,-5.1327,-5.1369,-5.1368,-5.144,-5.145,-5.1476,-5.1573,-5.1592,-5.1632,-5.1573,-5.1817,-5.1822,-5.1827,-5.184,-5.1848,-5.1854,0,0,0,0,0,-5.1043,-5.1113,-5.1116,-5.1138,-5.126,-5.1347,-5.1363,-5.1392,-5.1372,-5.1408,-5.1447,-5.1448,-5.1616,-5.1582,-5.1603,-5.1646,-5.1814,-5.182,-5.1826,-5.1837,-5.1846,-5.1854,0,0,0,0,0,0,-5.1043,-5.1123,-5.1127,-5.1224,-5.1279,-5.1349,-5.1395,-5.1401,-5.1463,-5.1459,-5.1492,-5.1509,-5.1596,-5.1631,-5.1591,-5.174,-5.1713,-5.1723,-5.1714,-5.1723,-5.173,-5.1719,-5.1579,0,0,0,0,0,-5.1055,-5.1119,-5.1186,-5.1264,-5.1292,-5.1339,-5.1378,-5.1395,-5.1454,-5.1477,-5.1522,-5.1578,-5.1644,-5.1686,-5.1749,-5.1846,-5.1861,-5.1887,-5.1894,-5.19,-5.1907,-5.196,-5.1972,-5.1848,-5.1848,-5.1848,0,0,-5.1079,-5.1131,-5.1169,-5.1266,-5.131,-5.1375,-5.1358,-5.1428,-5.1476,-5.1487,-5.1574,-5.1609,-5.1674,-5.1767,-5.1811,-5.1799,-5.1945,-5.1907,-5.1911,-5.1916,-5.1967,-5.1979,-5.1989,-5.1852,-5.1852,-5.1851,0,0,-5.1156,-5.1202,-5.1272,-5.1317,-5.1386,-5.1417,-5.1434,-5.1503,-5.1527,-5.1615,-5.1625,-5.1683,-5.1795,-5.1841,-5.1879,-5.1974,-5.1977,-5.1995,-5.2031,-5.2082,-5.2092,-5.2101,-5.2133,-5.2145,-5.2003,-5.2003,-5.2003,0,-5.1177,-5.1276,-5.1307,-5.1377,-5.1419,-5.1433,-5.1503,-5.1546,-5.1631,-5.166,-5.1646,-5.1787,-5.1832,-5.1935,-5.1959,-5.199,-5.2009,-5.1985,-5.2088,-5.2097,-5.2106,-5.2137,-5.215,-5.2004,-5.2004,-5.2004,-5.2004,0,-5.1297,-5.1366,-5.1415,-5.1497,-5.1545,-5.1615,-5.1656,-5.1701,-5.1715,-5.1748,-5.1837,-5.1892,-5.1966,-5.1993,-5.2007,-5.2098,-5.2089,-5.2081,-5.2054,-5.2118,-5.2148,-5.2161,-5.2006,-5.2006,-5.2005,-5.2005,0,0,-5.1376,-5.1476,-5.1493,-5.153,-5.1607,-5.1661,-5.1732,-5.1805,-5.1842,-5.1902,-5.1961,-5.2056,-5.205,-5.2093,-5.2113,-5.2158,-5.2229,-5.2145,-5.2147,-5.2157,-5.2332,-5.2335,-5.2349,-5.2233,-5.2235,-5.2237,-5.2326,0,-5.146,-5.1586,-5.1617,-5.1725,-5.1788,-5.1803,-5.1865,-5.1918,-5.1951,-5.201,-5.2046,-5.2112,-5.21,-5.2126,-5.2171,-5.2211,-5.2264,-5.2205,-5.2287,-5.2289,-5.2268,-5.2365,-5.2369,-5.2449,-5.2338,-5.234,-5.2341,0,-5.1574,-5.1636,-5.175,-5.1818,-5.1846,-5.1901,-5.1971,-5.2027,-5.2088,-5.2109,-5.2158,-5.2174,-5.2248,-5.2219,-5.2321,-5.228,-5.2316,-5.2341,-5.2344,-5.2351,-5.2317,-5.2372,-5.2476,-5.2487,-5.236,-5.2359,-5.2357,0,-5.1618,-5.173,-5.1812,-5.1844,-5.1927,-5.1965,-5.2001,-5.206,-5.2103,-5.2164,-5.2192,-5.2261,-5.2298,-5.2351,-5.2385,-5.2362,-5.2484,-5.2459,-5.2502,-5.2501,-5.2525,-5.2523,-5.2634,-5.2552,-5.2552,-5.2552,-5.2552,0,-5.1707,-5.1776,-5.1833,-5.1883,-5.1961,-5.1996,-5.2072,-5.2108,-5.2161,-5.2219,-5.2237,-5.229,-5.2333,-5.2393,-5.242,-5.25,-5.2517,-5.2535,-5.2541,-5.2532,-5.2529,-5.2554,-5.2548,-5.2555,-5.2554,-5.2554,-5.2553,0,-5.1768,-5.1809,-5.19,-5.1971,-5.1991,-5.2044,-5.2105,-5.2155,-5.2189,-5.2261,-5.228,-5.2333,-5.2404,-5.2444,-5.2534,-5.2552,-5.264,-5.2645,-5.2619,-5.2621,-5.2662,-5.2657,-5.2791,-5.281,-5.2717,-5.2718,-5.2719,0,-5.1821,-5.1874,-5.1951,-5.1991,-5.2028,-5.2092,-5.2136,-5.2173,-5.2217,-5.2292,-5.2332,-5.2404,-5.2464,-5.2577,-5.2623,-5.2691,-5.2696,-5.2739,-5.2706,-5.2696,-5.2695,-5.269,-5.2695,-5.2743,-5.2744,-5.2745,-5.2745,0,-5.191,-5.1928,-5.199,-5.2059,-5.2111,-5.2167,-5.2223,-5.2255,-5.2301,-5.235,-5.2423,-5.2469,-5.2561,-5.2632,-5.2704,-5.2742,-5.2751,-5.2756,-5.2769,-5.2759,-5.2742,-5.275,-5.2632,-5.2752,-5.2751,-5.2751,-5.275,-5.275,-5.1968,-5.2015,-5.2077,-5.2145,-5.2191,-5.2243,-5.2293,-5.2334,-5.2395,-5.2472,-5.2491,-5.2568,-5.2628,-5.2726,-5.2766,-5.2826,-5.2818,-5.2838,-5.2842,-5.2846,-5.2846,-5.2734,-5.2839,-5.2839,-5.2839,-5.2839,-5.2839,0,-5.2056,-5.2097,-5.216,-5.2237,-5.2291,-5.2297,-5.2359,-5.2403,-5.247,-5.2526,-5.2584,-5.2668,-5.2738,-5.279,-5.2861,-5.2899,-5.2905,-5.2916,-5.2912,-5.2921,-5.285,-5.2831,-5.291,-5.291,-5.291,-5.291,-5.291,-5.291,-5.2109,-5.2189,-5.2214,-5.2318,-5.2358,-5.2433,-5.2468,-5.2516,-5.2561,-5.2653,-5.2711,-5.2745,-5.28,-5.2875,-5.2939,-5.2952,-5.2977,-5.2987,-5.3001,-5.2933,-5.2926,-5.2918,-5.29,-5.2992,-5.2992,-5.3066,-5.3066,-5.3067]},{"header":{"parameterUnit":"m.s-1","parameterCategory":1,"la1":30.2991,"la2":30.254,"lo1":-89.0895,"lo2":-89.0444,"dy":0.0017,"dx":0.0017,"nx":28,"ny":28,"refTime":"2025-04-03T09:00:00:Z","depth":0,"parameterNumber":3,"parameterNumberName":"V-component_of_WINDS"},"data":[0,0,0,0,0,0,0,0,0,0,0,0,0,0,0,0,0,0,0,0,0,0,0,0,0,0,0,0,0,0,0,0,0,0,0,0,0,0,0,0,0,0,0,0,0,0,0,0,0,0,0,0,0,0,0,0,0,0,5.3035,5.3037,0,5.3185,5.3186,5.3188,5.3197,5.3195,5.3193,5.3192,5.3341,5.3347,5.3352,0,0,0,0,0,0,0,0,0,0,0,0,0,5.2756,5.2761,5.3035,5.3037,5.3039,5.3184,5.3186,5.3188,5.3197,5.3195,5.3193,5.3191,5.3339,5.3346,5.3353,0,0,0,0,0,0,0,0,0,0,0,0,0,5.2889,5.2763,5.3035,5.3061,5.3065,5.3184,5.3186,5.3189,5.3197,5.3195,5.3192,5.319,5.3337,5.3345,5.3354,5.3456,0,0,5.3379,5.3383,0,0,0,0,0,0,0,0,5.2881,5.2899,5.3055,5.3059,5.3064,5.317,5.3143,5.3278,5.3198,5.3147,5.3192,5.3189,5.3286,5.3298,5.3332,5.3463,5.3469,5.338,5.3385,5.3388,5.3391,0,0,0,0,0,0,0,5.2872,5.2892,5.3094,5.3057,5.3063,5.3065,5.3081,5.3169,5.3229,5.3151,5.3152,5.317,5.3288,5.3324,5.3335,5.3472,5.338,5.3387,5.3392,5.3395,5.3698,5.37,0,0,0,0,0,0,5.2858,5.2885,5.3089,5.3099,5.2964,5.3072,5.309,5.3138,5.3228,5.3239,5.3172,5.317,5.3311,5.3326,5.3341,5.3469,5.3388,5.3396,5.3401,5.3695,5.3698,5.3702,0,0,0,0,0,0,5.2852,5.2876,5.3083,5.2992,5.3019,5.3079,5.3134,5.3142,5.3178,5.3244,5.3254,5.3198,5.3309,5.3329,5.3428,5.3474,5.34,5.3408,5.3691,5.3696,5.37,5.3724,0,0,0,0,0,0,5.2844,5.2874,5.2914,5.2993,5.3024,5.3169,5.3136,5.3147,5.3193,5.3192,5.3271,5.3281,5.3309,5.3416,5.3437,5.3484,5.3414,5.3687,5.3693,5.3698,5.372,5.3729,5.3737,0,0,0,0,0,5.2834,5.2913,5.2916,5.294,5.3075,5.3171,5.3189,5.322,5.3197,5.3237,5.328,5.3279,5.3466,5.3426,5.3449,5.35,5.3684,5.3691,5.3698,5.3716,5.3727,5.3737,0,0,0,0,0,0,5.2836,5.2924,5.2928,5.3035,5.3096,5.3173,5.3225,5.3231,5.3299,5.3294,5.3329,5.3347,5.3446,5.3483,5.3437,5.3606,5.3572,5.3584,5.3578,5.3589,5.3598,5.3587,5.3421,0,0,0,0,0,5.2849,5.2921,5.2994,5.3081,5.3112,5.3163,5.3207,5.3226,5.329,5.3315,5.3364,5.3426,5.3499,5.3546,5.3616,5.3725,5.3743,5.3772,5.378,5.3787,5.3797,5.386,5.3874,5.3724,5.3724,5.3724,0,0,5.2876,5.2933,5.2976,5.3083,5.3133,5.3207,5.3185,5.3263,5.3319,5.3327,5.3424,5.3463,5.3534,5.3639,5.3688,5.3673,5.3843,5.3796,5.3801,5.3807,5.3868,5.3883,5.3895,5.3728,5.3728,5.3727,0,0,5.2964,5.3014,5.3094,5.3145,5.3221,5.3255,5.3274,5.3351,5.3378,5.3477,5.3485,5.3551,5.3675,5.3727,5.3769,5.3879,5.3882,5.3901,5.3947,5.4008,5.4019,5.403,5.4071,5.4085,5.3911,5.3911,5.3911,0,5.2988,5.3101,5.3134,5.3214,5.3261,5.3274,5.3356,5.3403,5.3497,5.353,5.3512,5.3671,5.3719,5.3838,5.3865,5.3898,5.3922,5.3892,5.4015,5.4026,5.4037,5.4076,5.4092,5.3913,5.3913,5.3912,5.3912,0,5.3128,5.3206,5.3261,5.3355,5.3408,5.3488,5.3534,5.3584,5.3599,5.3635,5.3736,5.3796,5.388,5.3909,5.3923,5.4031,5.4019,5.4008,5.3975,5.4052,5.409,5.4106,5.3916,5.3915,5.3914,5.3914,0,0,5.322,5.3333,5.3353,5.3396,5.3482,5.3543,5.3624,5.3708,5.3751,5.3817,5.3886,5.3993,5.3984,5.4032,5.4052,5.4105,5.4192,5.4088,5.409,5.4106,5.4316,5.4325,5.4342,5.4194,5.4197,5.4199,5.4311,0,5.3319,5.3465,5.3498,5.3624,5.3697,5.3712,5.3783,5.3843,5.3879,5.3947,5.3986,5.4062,5.4043,5.4073,5.4126,5.417,5.4234,5.4162,5.4259,5.4263,5.4242,5.4361,5.437,5.4472,5.4325,5.4328,5.433,0,5.3453,5.3524,5.3657,5.3736,5.3768,5.3832,5.3913,5.3977,5.4046,5.4069,5.4124,5.414,5.4226,5.4189,5.4308,5.4258,5.43,5.4328,5.4333,5.4343,5.4301,5.4376,5.4505,5.4521,5.4353,5.4351,5.4349,0,5.3509,5.3638,5.3735,5.3772,5.3865,5.391,5.3951,5.4018,5.4068,5.4138,5.417,5.4249,5.4292,5.4353,5.439,5.436,5.4507,5.4473,5.4529,5.4528,5.4559,5.4557,5.4698,5.4584,5.4584,5.4584,5.4584,0,5.3617,5.3698,5.3762,5.3822,5.3914,5.3952,5.4042,5.4083,5.4143,5.4211,5.4227,5.4291,5.4335,5.4405,5.4435,5.453,5.4549,5.457,5.4577,5.4569,5.4567,5.4598,5.4592,5.4588,5.4587,5.4586,5.4586,0,5.3695,5.3741,5.3848,5.3929,5.3952,5.4016,5.4086,5.4145,5.4182,5.4268,5.4291,5.4349,5.4433,5.4476,5.4579,5.4599,5.4707,5.4709,5.4684,5.4687,5.4741,5.4736,5.4908,5.4933,5.4801,5.4802,5.4803,0,5.3761,5.3825,5.3913,5.3961,5.4004,5.408,5.4131,5.4171,5.4223,5.4309,5.4358,5.4443,5.4513,5.4646,5.4697,5.4777,5.4782,5.4837,5.4794,5.4785,5.4785,5.4781,5.4788,5.4844,5.4845,5.4846,5.4847,0,5.3874,5.3895,5.3968,5.405,5.4111,5.4178,5.4243,5.4281,5.4331,5.439,5.4476,5.4531,5.4638,5.4723,5.4807,5.4849,5.4857,5.486,5.4878,5.4871,5.4855,5.4866,5.4706,5.4856,5.4855,5.4855,5.4854,5.4854,5.395,5.4008,5.4081,5.4162,5.4216,5.4278,5.4338,5.4384,5.4457,5.4549,5.4568,5.466,5.473,5.4844,5.4889,5.4962,5.495,5.4975,5.4981,5.4987,5.4991,5.4843,5.4977,5.4977,5.4976,5.4976,5.4976,0,5.4066,5.4114,5.4189,5.4281,5.4346,5.4349,5.4422,5.4476,5.4558,5.4623,5.4692,5.4793,5.4875,5.4934,5.5018,5.5066,5.5072,5.5086,5.5084,5.5094,5.4995,5.4973,5.508,5.508,5.508,5.508,5.508,5.508,5.4134,5.4233,5.4262,5.4389,5.4436,5.4528,5.4569,5.4626,5.4679,5.4791,5.4861,5.4899,5.4962,5.5052,5.5128,5.5143,5.5174,5.5189,5.5204,5.5111,5.51,5.509,5.5069,5.5195,5.5195,5.5297,5.5298,5.5299]}]]